Location: Heppenheim
(49.6410°N, 8.6370°E)
Time: 17:03:35
(UTC+02:00)

ISS - Pass Details

Date: 08 May 2026
Orbit: 414 x 424 km, 51.6° (Epoch: 10 May)

Event Time Altitude Azimuth Distance (km) Brightness Sun altitude
Rises 22:27:26 0° 222° (SW) 2,341 0.0 -12.8°
Reaches altitude 10° 22:29:37 10° 213° (SSW) 1,482 -1.1 -13.0°
Maximum altitude 22:32:39 33° 147° (SSE) 722 -3.1 -13.4°
Enters shadow 22:35:04 14° 87° (E) 1,267 -1.7 -13.6°
